• In Hungary
  • List of Countries
  • For 7 days
  • Water Temperature
  • Satellite Maps
  • Weather Map
  • News
  • Weather Widgets
  • user-avatar
    Login

    Hourly Weather Kersha

    Today, 18 January, Thursday

    Time Temperature Precipitation Wind Pressure Humidity
    00:00 -15°C° 0 mm 6 mps 747 mmHg 81%
    01:00 -15°C° 0 mm 6 mps 747 mmHg 81%
    02:00 -15°C° 0 mm 6 mps 747 mmHg 82%
    03:00 -15°C° 0 mm 7 mps 747 mmHg 83%
    04:00 -15°C° 0 mm 7 mps 747 mmHg 83%
    05:00 -15°C° 0 mm 7 mps 746 mmHg 84%
    06:00 -15°C° 0 mm 6 mps 746 mmHg 84%
    07:00 -15°C° 0 mm 6 mps 746 mmHg 84%
    08:00 -15°C° 0 mm 7 mps 746 mmHg 84%
    09:00 -15°C° 0 mm 7 mps 746 mmHg 84%
    10:00 -14°C° 0 mm 7 mps 746 mmHg 83%
    11:00 -14°C° 0 mm 7 mps 747 mmHg 82%
    12:00 -13°C° 0 mm 7 mps 747 mmHg 81%
    13:00 -12°C° 0 mm 6 mps 747 mmHg 81%
    14:00 -12°C° 0 mm 6 mps 747 mmHg 81%
    15:00 -11°C° 0 mm 6 mps 747 mmHg 81%
    16:00 -12°C° 0 mm 6 mps 747 mmHg 81%
    17:00 -12°C° 0 mm 5 mps 747 mmHg 80%
    18:00 -12°C° 0 mm 5 mps 748 mmHg 80%
    19:00 -12°C° 0 mm 5 mps 748 mmHg 78%
    20:00 -13°C° 0 mm 5 mps 748 mmHg 76%
    21:00 -13°C° 0 mm 5 mps 748 mmHg 73%
    22:00 -14°C° 0 mm 5 mps 748 mmHg 72%
    23:00 -14°C° 0 mm 5 mps 748 mmHg 70%

    Tomorrow, 19 January, Friday

    Time Temperature Precipitation Wind Pressure Humidity
    00:00 -14°C° 0 mm 5 mps 748 mmHg 69%
    01:00 -15°C° 0 mm 5 mps 748 mmHg 70%
    02:00 -15°C° 0 mm 5 mps 748 mmHg 71%
    03:00 -15°C° 0 mm 5 mps 748 mmHg 73%
    04:00 -15°C° 0 mm 5 mps 748 mmHg 75%
    05:00 -15°C° 0 mm 4 mps 748 mmHg 78%
    06:00 -16°C° 0 mm 4 mps 749 mmHg 80%
    07:00 -16°C° 0 mm 4 mps 749 mmHg 81%
    08:00 -17°C° 0 mm 5 mps 749 mmHg 82%
    09:00 -17°C° 0 mm 5 mps 749 mmHg 83%
    10:00 -15°C° 0 mm 5 mps 749 mmHg 82%
    11:00 -16°C° 0 mm 6 mps 749 mmHg 81%
    12:00 -15°C° 0 mm 6 mps 749 mmHg 80%
    13:00 -15°C° 0 mm 6 mps 749 mmHg 80%
    14:00 -14°C° 0 mm 6 mps 749 mmHg 80%
    15:00 -14°C° 0 mm 6 mps 749 mmHg 81%
    16:00 -13°C° 0 mm 5 mps 749 mmHg 82%
    17:00 -13°C° 0 mm 5 mps 750 mmHg 84%
    18:00 -13°C° 0 mm 5 mps 750 mmHg 86%
    19:00 -13°C° 0 mm 5 mps 750 mmHg 86%
    20:00 -13°C° 0 mm 5 mps 749 mmHg 87%
    21:00 -13°C° 0 mm 5 mps 749 mmHg 87%
    22:00 -13°C° 0 mm 5 mps 749 mmHg 87%
    23:00 -14°C° 0 mm 6 mps 749 mmHg 87%

    Day after tomorrow, 20 January, Saturday

    Time Temperature Precipitation Wind Pressure Humidity
    00:00 -14°C° 0 mm 6 mps 749 mmHg 87%
    01:00 -14°C° 0.1 mm 6 mps 749 mmHg 87%
    02:00 -15°C° 0.1 mm 6 mps 749 mmHg 88%
    03:00 -15°C° 0.1 mm 6 mps 749 mmHg 89%
    04:00 -14°C° 0.6 mm 6 mps 748 mmHg 90%
    05:00 -14°C° 0.6 mm 6 mps 748 mmHg 91%
    06:00 -14°C° 0.6 mm 6 mps 748 mmHg 93%
    07:00 -14°C° 0.6 mm 6 mps 748 mmHg 92%
    08:00 -14°C° 0.6 mm 6 mps 748 mmHg 92%
    09:00 -14°C° 0.6 mm 6 mps 748 mmHg 91%
    10:00 -12°C° 0.1 mm 5 mps 748 mmHg 91%
    11:00 -11°C° 0.1 mm 5 mps 748 mmHg 90%
    12:00 -11°C° 0.1 mm 5 mps 747 mmHg 89%
    13:00 -10°C° 0.1 mm 5 mps 747 mmHg 90%
    14:00 -8°C° 0.1 mm 5 mps 747 mmHg 90%
    15:00 -8°C° 0.1 mm 5 mps 747 mmHg 90%
    16:00 -8°C° 0 mm 5 mps 747 mmHg 91%
    17:00 -8°C° 0 mm 5 mps 748 mmHg 93%
    18:00 -8°C° 0 mm 4 mps 748 mmHg 94%
    19:00 -7°C° 0 mm 4 mps 748 mmHg 94%
    20:00 -7°C° 0 mm 4 mps 748 mmHg 94%
    21:00 -7°C° 0 mm 4 mps 748 mmHg 95%
    22:00 -7°C° 0 mm 4 mps 749 mmHg 95%
    23:00 -7°C° 0 mm 4 mps 749 mmHg 95%

    21 January, Sunday

    Time Temperature Precipitation Wind Pressure Humidity
    00:00 -6°C° 0 mm 3 mps 749 mmHg 96%
    01:00 -7°C° 0 mm 4 mps 749 mmHg 96%
    02:00 -7°C° 0 mm 4 mps 749 mmHg 96%
    03:00 -7°C° 0 mm 4 mps 750 mmHg 96%
    04:00 -7°C° 0.1 mm 4 mps 749 mmHg 96%
    05:00 -8°C° 0.1 mm 4 mps 749 mmHg 95%
    06:00 -8°C° 0.1 mm 4 mps 749 mmHg 95%
    07:00 -8°C° 0.3 mm 4 mps 749 mmHg 95%
    08:00 -8°C° 0.3 mm 5 mps 749 mmHg 94%
    09:00 -8°C° 0.3 mm 5 mps 749 mmHg 94%
    10:00 -9°C° 0.5 mm 6 mps 749 mmHg 93%
    11:00 -9°C° 0.5 mm 6 mps 749 mmHg 93%
    12:00 -9°C° 0.5 mm 6 mps 748 mmHg 93%
    13:00 -9°C° 1 mm 6 mps 748 mmHg 93%
    14:00 -8°C° 1 mm 6 mps 748 mmHg 94%
    15:00 -8°C° 1 mm 6 mps 747 mmHg 94%
    16:00 -8°C° 1.5 mm 6 mps 747 mmHg 95%
    17:00 -8°C° 1.5 mm 6 mps 747 mmHg 95%
    18:00 -8°C° 1.5 mm 6 mps 746 mmHg 95%
    19:00 -8°C° 1.5 mm 6 mps 746 mmHg 95%
    20:00 -8°C° 1.5 mm 6 mps 746 mmHg 95%
    21:00 -8°C° 1.5 mm 6 mps 745 mmHg 95%
    22:00 -8°C° 1.1 mm 6 mps 745 mmHg 95%
    23:00 -7°C° 1.1 mm 5 mps 745 mmHg 95%

    22 January, Monday

    Time Temperature Precipitation Wind Pressure Humidity
    00:00 -7°C° 1.1 mm 5 mps 744 mmHg 95%
    01:00 -5°C° 0.5 mm 4 mps 744 mmHg 95%
    02:00 -5°C° 0.5 mm 3 mps 744 mmHg 95%
    03:00 -5°C° 0.5 mm 3 mps 744 mmHg 96%
    04:00 -4°C° 0.1 mm 2 mps 745 mmHg 96%
    05:00 -4°C° 0.1 mm 2 mps 745 mmHg 96%
    06:00 -4°C° 0.1 mm 2 mps 746 mmHg 96%
    07:00 -6°C° 0 mm 2 mps 746 mmHg 97%
    08:00 -7°C° 0 mm 2 mps 746 mmHg 97%
    09:00 -8°C° 0 mm 2 mps 747 mmHg 97%
    10:00 -7°C° 0 mm 2 mps 747 mmHg 96%
    11:00 -7°C° 0 mm 2 mps 748 mmHg 96%
    12:00 -6°C° 0 mm 2 mps 748 mmHg 95%
    13:00 -6°C° 0 mm 2 mps 748 mmHg 95%
    14:00 -6°C° 0 mm 2 mps 748 mmHg 95%
    15:00 -7°C° 0 mm 3 mps 748 mmHg 95%
    16:00 -6°C° 0 mm 3 mps 748 mmHg 95%
    17:00 -6°C° 0 mm 3 mps 748 mmHg 96%
    18:00 -6°C° 0 mm 3 mps 748 mmHg 96%
    19:00 -6°C° 0.1 mm 3 mps 748 mmHg 96%
    20:00 -5°C° 0.1 mm 3 mps 748 mmHg 96%
    21:00 -5°C° 0.1 mm 3 mps 748 mmHg 96%
    22:00 -5°C° 0.6 mm 3 mps 748 mmHg 96%
    23:00 -5°C° 0.6 mm 4 mps 748 mmHg 96%

    23 January, Tuesday

    Time Temperature Precipitation Wind Pressure Humidity
    00:00 -5°C° 0.6 mm 4 mps 748 mmHg 95%
    01:00 -5°C° 0.5 mm 4 mps 748 mmHg 95%
    02:00 -7°C° 0.5 mm 4 mps 748 mmHg 95%
    03:00 -8°C° 0.5 mm 4 mps 748 mmHg 95%
    04:00 -8°C° 0.5 mm 4 mps 747 mmHg 95%
    05:00 -8°C° 0.5 mm 4 mps 747 mmHg 95%
    06:00 -8°C° 0.5 mm 3 mps 747 mmHg 95%
    07:00 -8°C° 0.5 mm 3 mps 747 mmHg 95%
    08:00 -8°C° 0.5 mm 3 mps 747 mmHg 95%
    09:00 -9°C° 0.5 mm 4 mps 747 mmHg 95%
    10:00 -9°C° 0.5 mm 4 mps 747 mmHg 95%
    11:00 -8°C° 0.5 mm 3 mps 747 mmHg 95%
    12:00 -8°C° 0.5 mm 3 mps 747 mmHg 94%
    13:00 -9°C° 0.4 mm 4 mps 747 mmHg 94%
    14:00 -9°C° 0.4 mm 4 mps 747 mmHg 94%
    15:00 -9°C° 0.4 mm 4 mps 747 mmHg 94%
    16:00 -9°C° 0.2 mm 4 mps 747 mmHg 94%
    17:00 -9°C° 0.2 mm 4 mps 747 mmHg 94%
    18:00 -9°C° 0.2 mm 4 mps 747 mmHg 94%
    19:00 -9°C° 0.2 mm 4 mps 747 mmHg 94%
    20:00 -10°C° 0.2 mm 4 mps 747 mmHg 94%
    21:00 -9°C° 0.2 mm 3 mps 747 mmHg 94%
    22:00 -9°C° 0.1 mm 3 mps 747 mmHg 94%
    23:00 -9°C° 0.1 mm 3 mps 746 mmHg 94%
    Show more